If you wish to contribute or participate in the discussions about articles you are invited to join SKYbrary as a registered user

 Actions

Châteauroux-Déols "Marcel Dassault" Airport

From SKYbrary Wiki

LFLX
Airport
ICAO: LFLX – IATA: CHR
Summary
Name Châteauroux-Déols "Marcel Dassault" Airport
Region Europe
Territory France FR.gif
Location , Centre
Serving Chateauroux
Elevation 161.239 m
529 ft
529 ft161.239 m
Type medium airport
Coordinates 46° 51' 43.90" N, 1° 43' 50.40" E
Runways
Designator Length Width Surface ROPS
4/22 3500 m11,482.94 ft
45 m147.638 ft
CON no/no


METAR
Observation LFLX 221400Z AUTO VRB03KT CAVOK 34/13 Q1021 NOSIG
Station Chateauroux
Date/Time 22 July 2019 14:00:00
Wind direction °
Wind speed 03 kts
Lowest cloud amount clouds and visibility OK
Temperature 34°C
Dew point 13°C
Humidity 28%
QNH 1021 hPa
Weather condition n/a